"TOA5","AWS1","CR1000","7964","CR1000.Std.14","CPU:AWS1_114.CR1","64363","TBL110"
"TIMESTAMP","RECORD","Wind_spd_WVc(1)","Wind_spd_WVc(2)","Air_Temp_Avg","Humidity_Avg","SW_upper_Wm2_Avg","Rain_Tot","Press_Avg","Issui_Tot","Depth_cm","SR50A_Raw","Quality","Ground_Temp_Avg(1)","Ground_Temp_Avg(2)","SW_lower_Wm2_Avg","Albedo_Avg","SWC_per(1)","SWC_per(2)","Period(1)","Period(2)"
"TS","RN","","","","","","","","","","","","","","","","","","",""
"","","WVc","WVc","Avg","Avg","Avg","Tot","Avg","Tot","Smp","Smp","Smp","Avg","Avg","Avg","Avg","Smp","Smp","Smp","Smp"
"2016-09-17 00:00:00",253501,0.067,131.2,14.51,84.2,0,0,870.0604,0,-1.831,3.117,226,19.69,19.89,0.4320144,0,48.97,56,33.04,34.75
"2016-09-17 00:10:00",253502,0.191,126.4,14.45,84.8,0,0,869.9636,0,-1.298,3.113,237,19.71,19.88,0.3334845,0,48.92,56,33.03,34.75
"2016-09-17 00:20:00",253503,0.302,119.9,14.3,85.9,0,0,870.0689,0,-1.931,3.118,216,19.64,19.88,0.1098972,0,48.92,56,33.03,34.75
"2016-09-17 00:30:00",253504,0.322,101.2,14.58,84.1,0,0,870.2836,0,-2.028,3.118,219,19.65,19.86,0.4471669,0,48.97,56,33.04,34.75
"2016-09-17 00:40:00",253505,0.257,128.4,14.63,83.7,0,0,870.052,0,-2.184,3.12,212,19.61,19.83,0.2955846,0,48.97,56,33.04,34.75
"2016-09-17 00:50:00",253506,0.325,132.3,14.58,84.7,0,0,869.934,0,-2.489,3.122,208,19.62,19.82,0.1743213,0,48.97,56,33.04,34.75
"2016-09-17 01:00:00",253507,0.206,124.3,14.87,83.2,0,0,869.9509,0,-2.452,3.12,208,19.56,19.81,0.4812777,0,48.92,56,33.03,34.75
"2016-09-17 01:10:00",253508,0.1,109.1,15.06,81.9,0,0,869.934,0,-2.273,3.118,217,19.54,19.81,0.4737023,0,48.97,56,33.04,34.75
"2016-09-17 01:20:00",253509,0.117,68.34,15.12,81.5,0,0,869.9362,0,-2.275,3.118,226,19.54,19.81,0.4244433,0,48.92,56,33.03,34.75
"2016-09-17 01:30:00",253510,0.065,86.8,15.01,82.4,0,0,869.9298,0,-2.067,3.116,205,19.51,19.81,0.2425394,0,48.97,56,33.04,34.75
"2016-09-17 01:40:00",253511,0.044,70.79,15.17,81.2,0,0,869.8709,0,-2.319,3.118,207,19.49,19.8,0.4358053,0,48.97,56,33.04,34.75
"2016-09-17 01:50:00",253512,0,0,15.16,81.2,0,0,869.7908,0,-2.113,3.116,208,19.45,19.8,0.3031655,0,48.97,55.95,33.04,34.74
"2016-09-17 02:00:00",253513,0,0,15.11,81.9,0,0,869.9235,0,-1.963,3.115,218,19.47,19.8,0.227376,0,48.92,55.95,33.03,34.74
"2016-09-17 02:10:00",253514,0.008,66.52,15.07,82.3,0,0,869.9298,0,-1.961,3.115,206,19.47,19.78,0.2160061,0,48.97,55.95,33.04,34.74
"2016-09-17 02:20:00",253515,0.016,78.28,15,82.9,0,0,869.934,0,-1.961,3.115,211,19.43,19.75,0.1326345,0,48.92,55.95,33.03,34.74
"2016-09-17 02:30:00",253516,0.087,94.5,14.99,83.5,0,0,869.9319,0,-1.81,3.114,206,19.37,19.76,0.2122147,0,48.97,55.95,33.04,34.74
"2016-09-17 02:40:00",253517,0.042,108.7,14.98,84,0,0,869.7297,0,-2.063,3.116,207,19.34,19.76,0.1970563,0,48.97,55.95,33.04,34.74
"2016-09-17 02:50:00",253518,0.064,263,15,83.7,0,0,869.6813,0,-1.282,3.107,215,19.3,19.77,0.2955845,0,48.97,55.95,33.04,34.74
"2016-09-17 03:00:00",253519,0.032,60.94,15.48,80.2,0,0,869.6813,0,-2.153,3.115,207,19.35,19.79,0.7616984,0,48.92,55.95,33.03,34.74
"2016-09-17 03:10:00",253520,0.029,170,14.72,86.6,0,0,869.6834,0,-1.315,3.112,217,19.34,19.8,0,0,48.97,55.95,33.04,34.74
"2016-09-17 03:20:00",253521,0.145,170.1,14.23,89.9,0,0,869.5192,0,-1.218,3.112,219,19.28,19.79,0,0,48.92,55.95,33.03,34.74
"2016-09-17 03:30:00",253522,0.049,172.3,14.48,87.4,0,0,869.4286,0,-1.418,3.113,231,19.31,19.79,0.2235831,0,48.97,55.95,33.04,34.74
"2016-09-17 03:40:00",253523,0.201,178.8,14.09,90,0,0,869.4244,0,-1.683,3.117,233,19.32,19.73,0,0,48.97,55.95,33.04,34.74
"2016-09-17 03:50:00",253524,0.29,181.3,13.96,91.1,0,0,869.4286,0,-2.256,3.124,229,19.31,19.73,0,0,48.92,55.95,33.03,34.74
"2016-09-17 04:00:00",253525,0.115,181.3,13.94,92.2,0,0,869.4265,0,-2.516,3.127,224,19.22,19.75,0.04168499,0,48.92,56,33.03,34.75
"2016-09-17 04:10:00",253526,0.234,182.3,13.95,92.8,0,0,869.4665,0,-1.665,3.118,228,19.19,19.75,0.1894772,0,48.92,55.95,33.03,34.74
"2016-09-17 04:20:00",253527,0.33,182.3,13.86,93.1,0,0,869.6729,0,-2.624,3.129,229,19.23,19.7,0.06063271,0,48.92,55.95,33.03,34.74
"2016-09-17 04:30:00",253528,0.396,187.5,13.66,95,0,0,869.7676,0,-2.725,3.13,229,19.22,19.7,0,0,48.97,55.95,33.04,34.74
"2016-09-17 04:40:00",253529,0.447,186.2,13.52,97.1,0,0,869.8098,0,-3.913,3.143,201,19.19,19.7,0,0,48.97,55.95,33.04,34.74
"2016-09-17 04:50:00",253530,0.367,190.5,13.44,98.3,0,0,869.6813,0,-2.43,3.128,235,19.16,19.72,0,0,48.92,55.95,33.03,34.74
"2016-09-17 05:00:00",253531,0.468,188.4,13.33,98.8,0,0,869.5781,0,-2.949,3.134,216,19.12,19.72,0.04547675,0,48.92,55.89,33.03,34.72
"2016-09-17 05:10:00",253532,0.465,184.3,13.35,99.1,0,0,869.4496,0,-3.868,3.143,203,19.11,19.72,0.2349613,0,48.92,55.89,33.03,34.72
"2016-09-17 05:20:00",253533,0.511,183.1,13.31,99.7,0,0,869.4286,0,-4.153,3.145,202,19.12,19.73,0.2690757,0,48.97,55.95,33.04,34.74
"2016-09-17 05:30:00",253534,0.298,182.6,13.59,97.9,0,0,869.4412,0,-2.818,3.131,218,19.12,19.73,0.4547786,0,48.92,55.95,33.03,34.74
"2016-09-17 05:40:00",253535,0.403,183.5,13.46,98.1,0.05109937,0,869.4349,0,-3.06,3.135,206,19.09,19.73,0.2804557,0.107,48.92,55.95,33.03,34.74
"2016-09-17 05:50:00",253536,0.403,184.5,13.37,99.8,2.46844,0,869.4327,0,-1.31,3.117,253,19.08,19.69,0.6139616,0.273,48.92,55.89,33.03,34.72
"2016-09-17 06:00:00",253537,0.261,183.9,13.52,97.3,8.356699,0,869.4286,0,-1.182,3.115,239,19.03,19.7,1.603151,0.194,48.97,55.95,33.04,34.74
"2016-09-17 06:10:00",253538,0.165,183.9,13.89,92.4,15.71095,0,869.4327,0,-1.012,3.111,262,19.04,19.7,2.865185,0.184,48.92,55.89,33.03,34.72
"2016-09-17 06:20:00",253539,0.321,186.1,13.77,92.8,33.65076,0,869.4307,0,-1.282,3.116,237,19.04,19.69,4.976202,0.149,48.92,55.95,33.03,34.74
"2016-09-17 06:30:00",253540,0.335,185.8,13.76,93.7,43.72884,0,869.4286,0,-0.709,3.109,265,19.01,19.69,6.060091,0.138,48.97,55.95,33.04,34.74
"2016-09-17 06:40:00",253541,0.191,185.1,14.16,91.4,65.46587,0,869.4286,0,-3.97,3.137,206,18.99,19.65,10.79377,0.164,48.92,55.95,33.03,34.74
"2016-09-17 06:50:00",253542,0,0,15.17,84.3,37.90312,0,869.5318,0,-3.572,3.128,228,18.99,19.68,6.041072,0.159,48.92,55.95,33.03,34.74
"2016-09-17 07:00:00",253543,0.012,123.4,15.59,82.8,87.7683,0,869.6813,0,-3.763,3.132,217,18.98,19.64,13.09741,0.15,48.92,55.89,33.03,34.72
"2016-09-17 07:10:00",253544,0.044,124.2,15.07,88.8,97.03838,0,869.675,0,-2.725,3.121,225,18.96,19.63,14.09762,0.145,48.97,55.89,33.04,34.72
"2016-09-17 07:20:00",253545,0.009,118.7,15.57,86.9,58.29511,0,869.6813,0,-3.014,3.121,217,18.97,19.63,7.272273,0.121,48.92,55.89,33.03,34.72
"2016-09-17 07:30:00",253546,0.09,74.43,15.93,85,179.7898,0,869.6855,0,-3.007,3.12,233,18.99,19.6,10.08035,0.081,48.92,55.89,33.03,34.72
"2016-09-17 07:40:00",253547,0.891,142.9,16.25,85.6,348.8981,0,869.5255,0,-1.125,3.098,234,18.92,19.59,14.84375,0.042,48.97,55.89,33.04,34.72
"2016-09-17 07:50:00",253548,0.792,148.2,17.07,79.83,124.3232,0,869.4286,0,-0.935,3.092,226,18.89,19.59,20.79707,0.246,48.97,55.89,33.04,34.72
"2016-09-17 08:00:00",253549,0.745,153.8,17.53,76.46,126.9719,0,869.4265,0,-0.619,3.088,214,18.88,19.57,23.66951,0.21,48.97,55.89,33.04,34.72
"2016-09-17 08:10:00",253550,0.637,145.8,17.82,74.03,145.7154,0,869.4286,0,-0.443,3.084,229,18.86,19.58,20.72502,0.191,48.97,55.89,33.04,34.72
"2016-09-17 08:20:00",253551,0.272,175,18.36,71.88,180.0857,0,869.6644,0,-0.784,3.085,225,18.82,19.57,32.90461,0.21,48.97,55.89,33.04,34.72
"2016-09-17 08:30:00",253552,0.283,2.17,18.28,74.74,199.3717,0,869.9277,0,-1.436,3.095,235,18.79,19.54,30.03593,0.15,48.97,55.89,33.04,34.72
"2016-09-17 08:40:00",253553,0.558,26.22,17.56,80.4,260.3226,0,869.934,0,-2.109,3.105,232,18.81,19.53,36.84953,0.142,48.92,55.89,33.03,34.72
"2016-09-17 08:50:00",253554,0.484,351.6,17.27,82.3,312.0294,0,869.934,0,0.072,3.082,290,18.83,19.49,49.91967,0.157,48.92,55.89,33.03,34.72
"2016-09-17 09:00:00",253555,0.376,4.834,17.24,81.2,97.16848,0,869.7866,0,-0.666,3.091,229,18.84,19.5,11.236,0.115,48.92,55.89,33.03,34.72
"2016-09-17 09:10:00",253556,0.041,3.001,17.22,83.8,76.7192,0,869.6561,0,-0.888,3.092,241,18.84,19.54,8.435526,0.11,48.97,55.89,33.04,34.72
"2016-09-17 09:20:00",253557,0.037,311.8,17.34,82.9,67.91143,0,869.5949,0,-0.587,3.09,236,18.84,19.54,7.07129,0.104,48.92,55.83,33.03,34.71
"2016-09-17 09:30:00",253558,0.053,90.8,17.34,82.7,102.7259,0,869.7403,0,-0.935,3.092,237,18.84,19.54,13.3013,0.128,48.92,55.89,33.03,34.72
"2016-09-17 09:40:00",253559,0.089,102.2,17.38,83.5,98.43404,0,869.9424,0,-0.681,3.09,290,18.84,19.53,12.82761,0.13,48.92,55.89,33.03,34.72
"2016-09-17 09:50:00",253560,0.215,141.6,17.26,84.8,154.5114,0,869.7444,0,-2.919,3.111,213,18.84,19.49,21.64209,0.139,48.92,55.83,33.03,34.71
"2016-09-17 10:00:00",253561,0.399,137.4,17.7,81.2,259.8627,0,869.5823,0,-2.468,3.105,239,18.8,19.48,38.12661,0.147,48.97,55.89,33.04,34.72
"2016-09-17 10:10:00",253562,0.536,147.3,17.84,79.74,223.6019,0,869.4286,0,-2.881,3.109,228,18.84,19.49,32.78335,0.147,48.92,55.83,33.03,34.71
"2016-09-17 10:20:00",253563,0.546,150.6,18.06,79,306.582,0,869.4201,0,-2.548,3.103,256,18.9,19.47,46.61518,0.152,48.92,55.89,33.03,34.72
"2016-09-17 10:30:00",253564,0.418,151.7,18.7,74.01,355.7971,0,869.3422,0,-3.32,3.107,192,18.92,19.48,54.48986,0.153,48.97,55.83,33.04,34.71
"2016-09-17 10:40:00",253565,0.272,135.9,19.16,72.92,338.834,0,869.3106,0,-3.847,3.11,195,18.85,19.47,49.87041,0.147,48.86,55.83,33.01,34.71
"2016-09-17 10:50:00",253566,0.266,140.5,19.41,74.03,381.3793,0,869.2158,0,-3.584,3.107,190,18.84,19.46,54.81576,0.144,48.81,55.83,33,34.71
"2016-09-17 11:00:00",253567,0.67,120.8,19.56,74.14,558.8475,0,869.1758,0,-4.046,3.111,193,18.85,19.43,78.12904,0.139,48.86,55.83,33.01,34.71
"2016-09-17 11:10:00",253568,0.535,143.9,19.6,72.92,503.5209,0,869.1758,0,-3.632,3.107,184,18.92,19.37,70.2771,0.138,48.81,55.77,33,34.7
"2016-09-17 11:20:00",253569,0.41,125.1,19.97,72.35,595.3441,0,869.0548,0,-4.349,3.11,186,18.93,19.36,86.36751,0.144,48.86,55.83,33.01,34.71
"2016-09-17 11:30:00",253570,0.278,87.8,20.43,72.46,521.439,0,868.9079,0,-3.321,3.101,194,18.9,19.36,74.65024,0.142,48.81,55.83,33,34.71
"2016-09-17 11:40:00",253571,0.186,322.5,19.99,73.88,399.3604,0,868.8885,0,-2.835,3.097,207,18.96,19.36,53.78501,0.134,48.86,55.83,33.01,34.71
"2016-09-17 11:50:00",253572,0.136,297.9,19.74,74.9,302.9583,0,868.6924,0,-3.002,3.1,213,19.02,19.36,40.11233,0.132,48.81,55.83,33,34.71
"2016-09-17 12:00:00",253573,0.19,81.3,19.86,75.2,342.9529,0,868.4457,0,-1.671,3.086,238,19.01,19.36,47.34657,0.137,48.81,55.83,33,34.71
"2016-09-17 12:10:00",253574,0.136,306.3,19.47,78.4,163.5943,0,868.3877,0,-1.427,3.088,253,19.09,19.38,19.26225,0.118,48.81,55.77,33,34.7
"2016-09-17 12:20:00",253575,0.034,329.2,19.21,79.49,204.0487,0,868.3975,0,-0.934,3.083,243,19.11,19.4,26.72008,0.131,48.86,55.77,33.01,34.7
"2016-09-17 12:30:00",253576,0.209,303.9,18.92,81.5,143.0153,0,868.4069,0,-3.464,3.11,194,19.14,19.36,16.81421,0.116,48.86,55.83,33.01,34.71
"2016-09-17 12:40:00",253577,0.225,303.7,18.62,84.7,166.3415,0,868.4127,0,-1.913,3.095,250,19.2,19.3,21.94904,0.131,48.86,55.77,33.01,34.7
"2016-09-17 12:50:00",253578,0.136,320.6,18.76,85,201.3172,0,868.4119,0,-0.594,3.082,288,19.19,19.28,27.78115,0.138,48.81,55.77,33,34.7
"2016-09-17 13:00:00",253579,0.111,80.9,19.42,83.3,548.7742,0,868.2003,0,-2.101,3.089,208,19.24,19.33,85.04495,0.152,48.81,55.77,33,34.7
"2016-09-17 13:10:00",253580,0.416,68.73,19.83,80.4,300.0224,0,868.0737,0,-3.44,3.104,196,19.26,19.38,41.65088,0.138,48.81,55.77,33,34.7
"2016-09-17 13:20:00",253581,0.297,127.6,19.71,80.5,184.4326,0,867.9162,0,-3.217,3.103,228,19.36,19.34,24.31372,0.129,48.81,55.77,33,34.7
"2016-09-17 13:30:00",253582,0.184,136.5,19.45,82.2,156.2486,0,867.9066,0,-4.006,3.112,193,19.37,19.29,20.79323,0.13,48.81,55.77,33,34.7
"2016-09-17 13:40:00",253583,0.11,151.5,19.34,83.3,184.4091,0,867.7949,0,-2.191,3.094,220,19.37,19.28,25.33689,0.137,48.81,55.77,33,34.7
"2016-09-17 13:50:00",253584,0.116,205.5,19.65,80.5,223.142,0,867.6696,0,-3.313,3.103,210,19.46,19.27,31.32816,0.14,48.81,55.72,33,34.68
"2016-09-17 14:00:00",253585,0.061,271.7,19.67,81.1,202.3705,0,867.6677,0,-1.162,3.082,226,19.45,19.29,27.70536,0.137,48.81,55.77,33,34.7
"2016-09-17 14:10:00",253586,0.225,20.61,19.68,81.2,159.9352,0,867.7331,0,-1.729,3.09,241,19.47,19.29,20.71744,0.126,48.75,55.72,32.99,34.68
"2016-09-17 14:20:00",253587,0.114,317.1,19.05,85.5,145.4128,0,867.6593,0,-0.854,3.082,283,19.57,19.25,19.32668,0.13,48.81,55.77,33,34.7
"2016-09-17 14:30:00",253588,0.163,319.8,19.34,83.1,227.5676,0,867.4719,0,-0.559,3.078,304,19.54,19.25,32.59766,0.143,48.75,55.72,32.99,34.68
"2016-09-17 14:40:00",253589,0.208,28.24,19.56,81.7,235.7425,0,867.4066,0,-0.47,3.076,243,19.52,19.27,33.52231,0.142,48.75,55.72,32.99,34.68
"2016-09-17 14:50:00",253590,0.122,351.5,19.47,82.6,178.3368,0,867.4066,0,-0.822,3.081,280,19.62,19.28,24.55246,0.138,48.75,55.72,32.99,34.68
"2016-09-17 15:00:00",253591,0.112,64.15,19.61,82.6,214.7077,0,867.4066,0,-2.795,3.098,227,19.61,19.3,30.4452,0.142,48.75,55.72,32.99,34.68
"2016-09-17 15:10:00",253592,0.183,77.43,19.78,81,212.8329,0,867.3708,0,-0.851,3.079,281,19.6,19.33,29.64561,0.139,48.7,55.72,32.97,34.68
"2016-09-17 15:20:00",253593,0.12,310.4,19.6,81.5,209.2092,0,867.3602,0,-0.757,3.079,277,19.71,19.33,28.19421,0.135,48.7,55.72,32.97,34.68
"2016-09-17 15:30:00",253594,0.305,305.8,19.47,82.6,168.9041,0,867.2823,0,-1.363,3.086,296,19.71,19.36,22.23326,0.132,48.75,55.72,32.99,34.68
"2016-09-17 15:40:00",253595,0.192,341.9,19.31,83.8,158.8386,0,867.3582,0,-2.063,3.093,270,19.71,19.34,21.61177,0.136,48.75,55.72,32.99,34.68
"2016-09-17 15:50:00",253596,0.095,117.1,19.3,84.2,130.851,0,867.4023,0,-0.694,3.08,305,19.78,19.38,17.52664,0.134,48.7,55.72,32.97,34.68
"2016-09-17 16:00:00",253597,0.038,179.1,19.32,84.3,104.4277,0,867.4045,0,-1.212,3.085,257,19.83,19.39,12.97919,0.124,48.7,55.72,32.97,34.68
"2016-09-17 16:10:00",253598,0.054,77.18,19.26,84.1,88.48255,0,867.3602,0,-1.245,3.086,262,19.8,19.4,10.82673,0.121,48.7,55.72,32.97,34.68
"2016-09-17 16:20:00",253599,0,0,19.21,85.2,85.29115,0,867.3582,0,-0.6,3.08,323,19.8,19.4,10.6562,0.124,48.7,55.66,32.97,34.67
"2016-09-17 16:30:00",253600,0.063,81.2,19.08,86.2,68.01362,0,867.4108,0,-0.481,3.08,299,19.78,19.41,8.1551,0.12,48.7,55.66,32.97,34.67
"2016-09-17 16:40:00",253601,0.047,52.37,18.95,87.8,40.61165,0,867.4445,0,-0.091,3.076,336,19.87,19.41,4.380713,0.107,48.65,55.72,32.96,34.68
"2016-09-17 16:50:00",253602,0.165,46.45,18.77,88.6,29.6265,0,867.6067,0,0.131,3.075,355,19.93,19.42,3.198375,0.107,48.65,55.66,32.96,34.67
"2016-09-17 17:00:00",253603,0.067,118.4,18.6,89.6,38.92556,0,867.4255,0,-0.028,3.077,336,19.93,19.41,4.789984,0.123,48.7,55.66,32.97,34.67
"2016-09-17 17:10:00",253604,0.095,105,18.56,89.4,42.78117,0,867.4571,0,0.122,3.076,350,19.91,19.41,5.942006,0.139,48.7,55.66,32.97,34.67
"2016-09-17 17:20:00",253605,0.232,131.2,18.42,89.7,28.65572,0,867.4235,0,0.296,3.075,341,19.89,19.41,3.948705,0.138,48.7,55.72,32.97,34.68
"2016-09-17 17:30:00",253606,0.092,101.5,18.43,89.2,10.12049,0,867.4635,0,0.273,3.075,350,19.89,19.41,1.08381,0.084,48.65,55.66,32.96,34.67
"2016-09-17 17:40:00",253607,0.143,108.7,18.32,90.2,2.499663,0,867.6593,0,-0.459,3.083,299,19.89,19.42,0,0,48.65,55.66,32.96,34.67
"2016-09-17 17:50:00",253608,0.11,82.3,18.23,90.5,0.8174997,0,867.7225,0,-0.078,3.08,314,19.89,19.42,0,0,48.65,55.66,32.96,34.67
"2016-09-17 18:00:00",253609,0.24,137.2,18.04,91.1,0.01572115,0,867.6741,0,-0.968,3.09,261,19.89,19.42,0,0,48.65,55.66,32.96,34.67
"2016-09-17 18:10:00",253610,0.506,142.6,17.85,93,0,0,867.5877,0,-0.507,3.086,291,19.9,19.42,0,0,48.65,55.66,32.96,34.67
"2016-09-17 18:20:00",253611,0.51,140.5,17.84,92.5,0,0,867.6593,0,-0.865,3.089,264,19.9,19.42,0.07579089,0,48.65,55.66,32.96,34.67
"2016-09-17 18:30:00",253612,0.514,136.9,17.92,89.7,0,0,867.6593,0,-1.174,3.092,246,19.9,19.41,0.2273727,0,48.59,55.66,32.95,34.67
"2016-09-17 18:40:00",253613,0.44,120.5,17.85,89.9,0,0,867.6593,0,-0.817,3.089,253,19.89,19.39,0.07579089,0,48.59,55.66,32.95,34.67
"2016-09-17 18:50:00",253614,0.426,143.1,17.8,91.1,0,0,867.6614,0,-1.206,3.093,236,19.89,19.38,0,0,48.65,55.66,32.96,34.67
"2016-09-17 19:00:00",253615,0.594,143.5,17.73,91.7,0,0,867.6467,0,-0.872,3.09,244,19.9,19.39,0.04926408,0,48.65,55.66,32.96,34.67
"2016-09-17 19:10:00",253616,0.517,78.51,17.75,91.6,0,0,867.7836,0,-0.769,3.089,259,19.92,19.43,0.1174759,0,48.65,55.66,32.96,34.67
"2016-09-17 19:20:00",253617,0.221,62.13,17.84,91.5,0,0,867.9121,0,-1.746,3.098,225,19.93,19.46,0.2273727,0,48.59,55.66,32.95,34.67
"2016-09-17 19:30:00",253618,0.437,119.8,17.74,92.5,0,0,867.9121,0,-1.603,3.098,229,19.94,19.47,0.04168499,0,48.59,55.66,32.95,34.67
"2016-09-17 19:40:00",253619,0.385,130,17.56,94.4,0,0,867.9121,0,-1.832,3.1,223,19.96,19.53,0,0,48.59,55.6,32.95,34.65
"2016-09-17 19:50:00",253620,0.148,70.75,17.54,95,0,0,867.9121,0,-1.42,3.096,229,19.97,19.53,0,0,48.65,55.66,32.96,34.67
"2016-09-17 20:00:00",253621,0.327,121.5,17.44,96.3,0,0,867.9142,0,-1.301,3.096,236,19.93,19.53,0,0,48.65,55.66,32.96,34.67
"2016-09-17 20:10:00",253622,0.315,121.6,17.44,99.2,0,0,867.9689,0,-1.141,3.094,247,19.88,19.54,0,0,48.59,55.6,32.95,34.65
"2016-09-17 20:20:00",253623,0.299,133.9,17.28,100,0,0,867.9479,0,-1.673,3.101,225,19.82,19.54,0,0,48.65,55.6,32.96,34.65
"2016-09-17 20:30:00",253624,0.352,111.4,17.2,100,0,0,867.9268,0,-2.434,3.107,210,19.84,19.54,0.06063271,0,48.59,55.66,32.95,34.67
"2016-09-17 20:40:00",253625,0.218,115.7,17.31,100,0,0,868.1459,0,-2.339,3.107,210,19.88,19.54,0.2235831,0,48.59,55.6,32.95,34.65
"2016-09-17 20:50:00",253626,0.169,121.9,17.23,100,0,0,868.169,0,-1.927,3.103,225,19.88,19.54,0.2273727,0,48.59,55.6,32.95,34.65
"2016-09-17 21:00:00",253627,0.241,113,17.29,100,0,0,868.1754,0,-2.49,3.108,203,19.88,19.54,0.2273727,0,48.59,55.6,32.95,34.65
"2016-09-17 21:10:00",253628,0.096,76.59,17.42,99.4,0,0,868.1649,0,-2.586,3.108,206,19.88,19.53,0.2311622,0,48.59,55.6,32.95,34.65
"2016-09-17 21:20:00",253629,0.025,41.64,17.52,96.5,0,0,868.0574,0,-3.15,3.113,197,19.87,19.53,0.424429,0,48.59,55.6,32.95,34.65
"2016-09-17 21:30:00",253630,0.087,59.97,17.58,96.4,0,0,867.9121,0,-2.92,3.111,196,19.83,19.51,0.2273727,0,48.59,55.6,32.95,34.65
"2016-09-17 21:40:00",253631,0.065,25.54,17.52,96.4,0,0,867.8573,0,-2.737,3.109,200,19.77,19.5,0.2463204,0,48.59,55.6,32.95,34.65
"2016-09-17 21:50:00",253632,0.033,299.8,17.67,94,0,0,867.8826,0,-4.024,3.121,194,19.74,19.51,0.3107426,0,48.59,55.6,32.95,34.65
"2016-09-17 22:00:00",253633,0.064,50.33,17.58,95.3,0,0,867.7246,0,-3.102,3.113,201,19.76,19.53,0.2046354,0,48.54,55.6,32.93,34.65
"2016-09-17 22:10:00",253634,0.106,171.4,17.26,99.9,0,0,867.5709,0,-3.425,3.118,195,19.76,19.53,0,0,48.54,55.6,32.93,34.65
"2016-09-17 22:20:00",253635,0.133,148.5,16.97,100,0,0.5,867.4066,0,-4.463,3.129,192,19.78,19.54,0.1061072,0,48.54,55.6,32.93,34.65
"2016-09-17 22:30:00",253636,0.487,162.3,16.92,100,0,3,867.455,0,1.094,3.076,305,19.78,19.54,0.2197936,0,48.59,55.6,32.95,34.65
"2016-09-17 22:40:00",253637,0.116,132.4,16.87,100,0,2,867.4971,0,-0.007,3.086,260,19.72,19.55,0.2008459,0,48.7,55.6,32.97,34.65
"2016-09-17 22:50:00",253638,0.226,143.4,16.87,100,0,1.5,867.4066,0,-2.353,3.109,230,19.69,19.54,0.216004,0,49.13,55.6,33.08,34.65
"2016-09-17 23:00:00",253639,0.41,151.4,16.67,100,0,1.5,867.375,0,-0.665,3.094,287,19.67,19.57,0.1856877,0,50.06,55.6,33.31,34.65
"2016-09-17 23:10:00",253640,0.744,73.01,16.64,100,0,3.5,867.4487,0,-3.16,3.118,195,19.71,19.57,0.2235831,0,51.33,55.6,33.62,34.65
"2016-09-17 23:20:00",253641,0.479,136,16.46,100,0,0.5,867.3918,0,-6.081,3.148,197,19.63,19.58,0.09852815,0,51.94,55.77,33.77,34.7
"2016-09-17 23:30:00",253642,0.595,112.3,16.29,100,0,0,867.3244,0,-4.234,3.131,220,19.62,19.58,0.2273727,0,51.82,56.41,33.75,34.84
"2016-09-17 23:40:00",253643,0.394,133,16.15,100,0,0,867.1644,0,-4.027,3.129,202,19.58,19.58,0.2311622,0,51.77,57.04,33.73,34.99
"2016-09-17 23:50:00",253644,0.286,116.1,16.11,100,0,0,867.1728,0,-4.083,3.13,207,19.55,19.58,0.4016917,0,51.6,57.45,33.69,35.09
